| time (UTC) | temp F | wind direction | speed knots | gust knots | rain 1hr in | rain 24hr in | rain mn in | humidity % | barometer mb |
| 20260902194014 | 61 | 162 | 2.6 | 6.1 | 0.00 | 0.00 | 0.00 | 42 | 1023.4 |
| 20260902192016 | 61 | 133 | 0.9 | 1.7 | 0.00 | 0.00 | 0.00 | 40 | 1023.4 |
| 20260902190131 | 61 | 206 | 2.6 | 5.2 | 0.00 | 0.00 | 0.00 | 41 | 1023.4 |
| 20260902185114 | 62 | 233 | 3.5 | 6.1 | 0.00 | 0.00 | 0.00 | 41 | 1023.4 |
| 20260902184121 | 63 | 165 | 4.3 | 6.1 | 0.00 | 0.00 | 0.00 | 41 | 1023.5 |
| 20260902183124 | 62 | 247 | 2.6 | 2.6 | 0.00 | 0.00 | 0.00 | 42 | 1023.3 |
| 20260902182141 | 61 | 137 | 0.9 | 5.2 | 0.00 | 0.00 | 0.00 | 43 | 1023.3 |
| 20260902181127 | 60 | 135 | 2.6 | 3.5 | 0.00 | 0.00 | 0.00 | 45 | 1023.3 |
| 20260902180126 | 59 | 165 | 3.5 | 4.3 | 0.00 | 0.00 | 0.00 | 47 | 1023.6 |
| 20260902175224 | 58 | 234 | 2.6 | 4.3 | 0.00 | 0.00 | 0.00 | 48 | 1023.3 |
| 20260902174226 | 58 | 207 | 1.7 | 3.5 | 0.00 | 0.00 | 0.00 | 48 | 1023.3 |
| 20260902173226 | 58 | 167 | 1.7 | 3.5 | 0.00 | 0.00 | 0.00 | 49 | 1023.2 |
| 20260902172324 | 58 | 172 | 2.6 | 5.2 | 0.00 | 0.00 | 0.00 | 50 | 1023.2 |
| 20260902171326 | 57 | 159 | 3.5 | 4.3 | 0.00 | 0.00 | 0.00 | 51 | 1023.2 |
| 20260902170326 | 57 | 171 | 1.7 | 3.5 | 0.00 | 0.00 | 0.00 | 51 | 1023.2 |
| 20260902163326 | 57 | 190 | 4.3 | 7.8 | 0.00 | 0.00 | 0.00 | 54 | 1023.1 |
| 20260902162325 | 57 | 152 | 2.6 | 4.3 | 0.00 | 0.00 | 0.00 | 52 | 1022.8 |
| 20260902161326 | 56 | 186 | 1.7 | 7.0 | 0.00 | 0.00 | 0.00 | 54 | 1022.9 |
| 20260902160326 | 55 | 224 | 0.0 | 0.0 | 0.00 | 0.00 | 0.00 | 57 | 1022.7 |
| 20260902155424 | 54 | 173 | 0.0 | 1.7 | 0.00 | 0.00 | 0.00 | 58 | 1022.8 |
| 20260902151425 | 52 | 138 | 0.0 | 0.0 | 0.00 | 0.00 | 0.00 | 61 | 1022.7 |
| 20260902150425 | 51 | 174 | 0.0 | 0.9 | 0.00 | 0.00 | 0.00 | 61 | 1022.7 |
| 20260902145428 | 50 | 186 | 0.9 | 1.7 | 0.00 | 0.00 | 0.00 | 62 | 1022.7 |
| 20260902144524 | 50 | 225 | 1.7 | 2.6 | 0.00 | 0.00 | 0.00 | 63 | 1022.6 |
| 20260902143540 | 49 | 180 | 0.9 | 2.6 | 0.00 | 0.00 | 0.00 | 62 | 1022.4 |
| 20260902142625 | 49 | 180 | 0.0 | 1.7 | 0.00 | 0.00 | 0.00 | 63 | 1022.1 |
| 20260902141625 | 48 | 210 | 0.0 | 0.9 | 0.00 | 0.00 | 0.00 | 63 | 1022.0 |
| 20260902140724 | 48 | 157 | 0.0 | 0.0 | 0.00 | 0.00 | 0.00 | 64 | 1021.9 |
| 20260902133824 | 48 | 225 | 0.0 | 0.9 | 0.00 | 0.00 | 0.00 | 65 | 1021.6 |
| 20260902132828 | 48 | 225 | 0.0 | 0.0 | 0.00 | 0.00 | 0.00 | 64 | 1021.4 |
| 20260902131924 | 48 | 225 | 0.0 | 0.0 | 0.00 | 0.00 | 0.00 | 64 | 1021.4 |
| 20260902130925 | 49 | 225 | 0.0 | 0.0 | 0.00 | 0.00 | 0.00 | 65 | 1021.3 |
| 20260902125928 | 48 | 194 | 0.0 | 1.7 | 0.00 | 0.00 | 0.00 | 66 | 1021.2 |
| 20260902124927 | 48 | 185 | 0.9 | 2.6 | 0.00 | 0.00 | 0.00 | 67 | 1021.4 |
| 20260902123925 | 47 | 180 | 0.0 | 0.0 | 0.00 | 0.00 | 0.00 | 67 | 1021.4 |
| 20260902122925 | 46 | 180 | 0.0 | 0.9 | 0.00 | 0.00 | 0.00 | 69 | 1021.4 |
| 20260902121926 | 46 | 202 | 0.0 | 1.7 | 0.00 | 0.00 | 0.00 | 68 | 1021.2 |
| 20260902120924 | 46 | 202 | 0.0 | 0.0 | 0.00 | 0.00 | 0.00 | 67 | 1021.3 |
| 20260902115942 | 46 | 270 | 0.0 | 0.0 | 0.00 | 0.00 | 0.00 | 66 | 1021.3 |
| 20260902115023 | 46 | 270 | 0.0 | 0.0 | 0.00 | 0.00 | 0.00 | 67 | 1021.5 |
| 20260902114026 | 46 | 270 | 0.0 | 0.0 | 0.00 | 0.00 | 0.00 | 66 | 1021.4 |
| 20260902113026 | 46 | 337 | 0.0 | 0.0 | 0.00 | 0.00 | 0.00 | 67 | 1021.5 |
| 20260902112026 | 46 | 337 | 0.0 | 0.0 | 0.00 | 0.00 | 0.00 | 67 | 1021.5 |
| 20260902111025 | 46 | 337 | 0.0 | 0.0 | 0.00 | 0.00 | 0.00 | 66 | 1021.6 |
| 20260902105125 | 46 | 337 | 0.0 | 0.0 | 0.00 | 0.00 | 0.00 | 66 | 1021.8 |
| 20260902104127 | 46 | 337 | 0.0 | 0.0 | 0.00 | 0.00 | 0.00 | 65 | 1021.7 |
| 20260902103125 | 46 | 337 | 0.0 | 0.0 | 0.00 | 0.00 | 0.00 | 64 | 1021.7 |
| 20260902102126 | 46 | 337 | 0.0 | 0.0 | 0.00 | 0.00 | 0.00 | 64 | 1021.6 |
| 20260902101225 | 46 | 337 | 0.0 | 0.0 | 0.00 | 0.00 | 0.00 | 62 | 1021.5 |
| 20260902100224 | 47 | 337 | 0.0 | 0.0 | 0.00 | 0.00 | 0.00 | 62 | 1021.6 |
| 20260902094225 | 47 | 337 | 0.0 | 0.0 | 0.00 | 0.00 | 0.00 | 60 | 1021.9 |
| 20260902093227 | 47 | 337 | 0.0 | 0.0 | 0.00 | 0.00 | 0.00 | 60 | 1022.0 |
| 20260902092226 | 47 | 337 | 0.0 | 0.0 | 0.00 | 0.00 | 0.00 | 61 | 1021.9 |
| 20260902091324 | 47 | 337 | 0.0 | 0.0 | 0.00 | 0.00 | 0.00 | 61 | 1022.0 |
| 20260902090325 | 47 | 337 | 0.0 | 0.0 | 0.00 | 0.00 | 0.00 | 62 | 1021.9 |
| 20260902085425 | 47 | 337 | 0.0 | 0.0 | 0.00 | 0.00 | 0.00 | 63 | 1022.0 |
| 20260902085324 | 47 | 337 | 0.0 | 0.0 | 0.00 | 0.00 | 0.00 | 64 | 1022.0 |
| 20260902084325 | 47 | 337 | 0.0 | 0.0 | 0.00 | 0.00 | 0.00 | 64 | 1022.0 |
| 20260902083325 | 47 | 337 | 0.0 | 0.0 | 0.00 | 0.00 | 0.00 | 66 | 1022.1 |
| 20260902082327 | 47 | 337 | 0.0 | 0.0 | 0.00 | 0.00 | 0.00 | 66 | 1022.0 |
| 20260902081325 | 47 | 337 | 0.0 | 0.0 | 0.00 | 0.00 | 0.00 | 66 | 1022.1 |
| 20260902080324 | 47 | 337 | 0.0 | 0.0 | 0.00 | 0.00 | 0.00 | 66 | 1022.0 |
| 20260902075324 | 47 | 337 | 0.0 | 0.0 | 0.00 | 0.00 | 0.00 | 69 | 1022.1 |
| 20260902074325 | 46 | 337 | 0.0 | 0.0 | 0.00 | 0.00 | 0.00 | 71 | 1022.0 |
| 20260902073326 | 45 | 315 | 0.0 | 0.0 | 0.00 | 0.00 | 0.00 | 72 | 1022.1 |
| 20260902071325 | 44 | 315 | 0.0 | 0.0 | 0.00 | 0.00 | 0.00 | 78 | 1021.9 |
| 20260902070424 | 44 | 315 | 0.0 | 0.0 | 0.00 | 0.00 | 0.00 | 76 | 1021.9 |
| 20260902065429 | 45 | 315 | 0.0 | 0.0 | 0.00 | 0.00 | 0.00 | 75 | 1021.8 |
| 20260902064430 | 45 | 315 | 0.0 | 0.0 | 0.00 | 0.00 | 0.00 | 73 | 1021.8 |
| 20260902062431 | 47 | 315 | 0.0 | 0.0 | 0.00 | 0.00 | 0.00 | 71 | 1021.9 |
| 20260902061432 | 48 | 315 | 0.0 | 0.0 | 0.00 | 0.00 | 0.00 | 72 | 1021.5 |
| 20260902060531 | 47 | 315 | 0.0 | 0.0 | 0.00 | 0.00 | 0.00 | 73 | 1021.5 |
| 20260902053629 | 45 | 315 | 0.0 | 0.0 | 0.00 | 0.00 | 0.00 | 76 | 1021.3 |
| 20260902052633 | 45 | 208 | 0.0 | 0.0 | 0.00 | 0.00 | 0.00 | 76 | 1021.5 |
| 20260902045831 | 46 | 202 | 0.0 | 0.0 | 0.00 | 0.00 | 0.00 | 72 | 1021.8 |
| 20260902043831 | 47 | 202 | 0.0 | 0.0 | 0.00 | 0.00 | 0.00 | 72 | 1021.7 |
| 20260902042848 | 48 | 202 | 0.0 | 0.0 | 0.00 | 0.00 | 0.00 | 70 | 1021.7 |
| 20260902041931 | 48 | 202 | 0.0 | 0.0 | 0.00 | 0.00 | 0.00 | 70 | 1021.6 |
| 20260902040933 | 49 | 202 | 0.0 | 0.0 | 0.00 | 0.00 | 0.00 | 70 | 1021.5 |
| 20260902035931 | 49 | 202 | 0.0 | 0.0 | 0.00 | 0.00 | 0.00 | 69 | 1021.4 |
| 20260902034930 | 50 | 202 | 0.0 | 0.0 | 0.00 | 0.00 | 0.00 | 68 | 1021.4 |
| 20260902033932 | 50 | 202 | 0.0 | 0.0 | 0.00 | 0.00 | 0.00 | 67 | 1021.4 |
| 20260902032929 | 51 | 202 | 0.0 | 0.0 | 0.00 | 0.00 | 0.00 | 67 | 1021.3 |
| 20260902031930 | 51 | 202 | 0.0 | 0.0 | 0.00 | 0.00 | 0.00 | 65 | 1021.3 |
| 20260902031030 | 51 | 202 | 0.0 | 0.0 | 0.00 | 0.00 | 0.00 | 64 | 1021.1 |
| 20260902030030 | 52 | 202 | 0.0 | 0.9 | 0.00 | 0.00 | 0.00 | 64 | 1021.0 |
| 20260902024130 | 53 | 180 | 0.0 | 0.0 | 0.00 | 0.00 | 0.00 | 61 | 1020.7 |
| 20260902021130 | 54 | 187 | 0.0 | 0.9 | 0.00 | 0.00 | 0.00 | 58 | 1020.6 |
| 20260902020131 | 55 | 202 | 0.0 | 0.0 | 0.00 | 0.00 | 0.00 | 58 | 1020.5 |
| 20260902015130 | 55 | 180 | 0.0 | 0.0 | 0.00 | 0.00 | 0.00 | 57 | 1020.6 |
| 20260902014147 | 56 | 247 | 0.0 | 0.0 | 0.00 | 0.00 | 0.00 | 57 | 1020.6 |
| 20260902013231 | 56 | 180 | 0.0 | 1.7 | 0.00 | 0.00 | 0.00 | 55 | 1020.6 |
| 20260902011232 | 57 | 235 | 0.0 | 0.9 | 0.00 | 0.00 | 0.00 | 54 | 1020.6 |
| 20260902005330 | 58 | 155 | 0.0 | 0.9 | 0.00 | 0.00 | 0.00 | 53 | 1020.6 |
| 20260902003330 | 59 | 157 | 0.0 | 0.9 | 0.00 | 0.00 | 0.00 | 51 | 1020.6 |
| 20260902002329 | 59 | 180 | 0.0 | 0.9 | 0.00 | 0.00 | 0.00 | 51 | 1020.6 |
| 20260902001330 | 59 | 192 | 0.9 | 3.5 | 0.00 | 0.00 | 0.00 | 50 | 1020.4 |
| 20260902000331 | 59 | 190 | 0.0 | 2.6 | 0.00 | 0.00 | 0.00 | 50 | 1020.5 |
| 20260901235430 | 60 | 217 | 1.7 | 5.2 | 0.00 | 0.00 | 0.00 | 48 | 1020.7 |
| 20260901234429 | 60 | 159 | 3.5 | 5.2 | 0.00 | 0.00 | 0.00 | 48 | 1020.7 |
| 20260901233430 | 61 | 162 | 2.6 | 4.3 | 0.00 | 0.00 | 0.00 | 47 | 1020.7 |
| 20260901232430 | 61 | 157 | 0.9 | 1.7 | 0.00 | 0.00 | 0.00 | 45 | 1020.6 |
| 20260901231431 | 62 | 232 | 1.7 | 3.5 | 0.00 | 0.00 | 0.00 | 45 | 1020.7 |
| 20260901230430 | 63 | 224 | 0.0 | 2.6 | 0.00 | 0.00 | 0.00 | 44 | 1020.7 |
| 20260901225429 | 63 | 135 | 0.9 | 1.7 | 0.00 | 0.00 | 0.00 | 44 | 1020.7 |
| 20260901224448 | 63 | 229 | 0.0 | 0.9 | 0.00 | 0.00 | 0.00 | 44 | 1020.7 |
| 20260901223530 | 63 | 159 | 0.9 | 3.5 | 0.00 | 0.00 | 0.00 | 43 | 1020.6 |
| 20260901222530 | 63 | 186 | 0.9 | 1.7 | 0.00 | 0.00 | 0.00 | 43 | 1020.9 |
| 20260901220529 | 63 | 203 | 0.9 | 2.6 | 0.00 | 0.00 | 0.00 | 43 | 1020.9 |
| 20260901215530 | 63 | 217 | 1.7 | 2.6 | 0.00 | 0.00 | 0.00 | 41 | 1020.9 |
| 20260901214531 | 64 | 192 | 0.9 | 4.3 | 0.00 | 0.00 | 0.00 | 41 | 1021.1 |
| 20260901213532 | 64 | 214 | 2.6 | 3.5 | 0.00 | 0.00 | 0.00 | 39 | 1021.1 |
| 20260901212531 | 64 | 262 | 0.9 | 1.7 | 0.00 | 0.00 | 0.00 | 39 | 1021.1 |
| 20260901211531 | 65 | 193 | 0.0 | 1.7 | 0.00 | 0.00 | 0.00 | 37 | 1021.0 |
| 20260901210529 | 65 | 160 | 2.6 | 4.3 | 0.00 | 0.00 | 0.00 | 37 | 1021.0 |
| 20260901204647 | 64 | 196 | 2.6 | 5.2 | 0.00 | 0.00 | 0.00 | 34 | 1020.9 |
| 20260901203729 | 64 | 176 | 5.2 | 9.6 | 0.00 | 0.00 | 0.00 | 33 | 1021.1 |
| 20260901202747 | 64 | 206 | 1.7 | 6.1 | 0.00 | 0.00 | 0.00 | 32 | 1021.1 |
| 20260901201830 | 64 | 242 | 2.6 | 5.2 | 0.00 | 0.00 | 0.00 | 33 | 1021.2 |
| 20260901200832 | 64 | 224 | 3.5 | 7.0 | 0.00 | 0.00 | 0.00 | 32 | 1021.2 |
| 20260901195831 | 64 | 218 | 1.7 | 4.3 | 0.00 | 0.00 | 0.00 | 31 | 1021.1 |